Вернуться в каталог

FENGYUN 1C DEB

АктивенSSO
NORAD 30572·DEBRIS·🇨🇳 China

Запущен May 10, 1999 с Taiyuan Satellite Launch Center

Loading…

Ближайшие Пролёты (ближайшие 24 часа)

TLE

СвежийSource: Space-Track

Эпоха: Sep 14, 2026, 01:51 UTC

1 30572U 99025ALN 26257.07742170  .00000358  00000-0  23020-3 0  9998
2 30572  98.7462 283.9745 0021456 233.0542 140.4914 14.09141339  6352

Отслеживайте FENGYUN 1C DEB в реальном времени с AllMySat

Download on the App Store